sat.trackr.live / text

‹ back to catalog

STARLINK-34814

NORAD 65100 · 2025-167Y

PAYLOAD ACTIVE UNKNOWN

§ Identity

Operator
Country
US
Launch date
2025-08-04
Launch site
AFETR
Launch vehicle
Mass (kg)
RCS (m²)

Purposes: comms

External: N2YO · Heavens-Above · Gunter

§ Orbital elements

Epoch: 2026-05-25T01:44:18.536064Z

Period
93.85 min
Inclination
53.1630°
Eccentricity
0.0001179
Mean motion
15.34397016 rev/d
Perigee alt
461.9 km
Apogee alt
463.5 km
Semi-major
6,840.8 km
B*
3.7437e-4
RAAN
31.2115°
Arg perigee
77.9185°
Mean anomaly
282.1949°
Rev number
4,518

§ Raw data

STARLINK-348141 65100U 25167Y   26145.07243676  .00012292  00000+0  37437-3 0  99982 65100  53.1630  31.2115 0001179  77.9185 282.1949 15.34397016 45182

JSON: /api/v1/satellites/65100 · /tle

For live sub-satellite position, see the globe view (requires WebGL).

§ Visibility from observer

Set your observer location to see the next 7 days of passes ≥ 10°. The values pass through the URL so the page stays shareable.

No JS? Fill the form by hand. The geolocation button needs JavaScript.